Location: Chaumontel
(49.1247°N, 2.4324°E)
Time: 12:10:46
(UTC+00:00)

Cosmos 1709 Rocket - Pass Details

Date: 03 February 2023
Orbit: 947 x 1002 km, 82.9° (Epoch: 21 March)

Event Time Altitude Azimuth Distance (km) Brightness Sun altitude
Rises 19:31:44 0° 349° (N) 3,660 7.2 -26.6°
Reaches altitude 10° 19:34:15 10° 349° (N) 2,703 6.5 -27.0°
Maximum altitude 19:40:26 82° 263° (W) 967 3.9 -28.0°
Enters shadow 19:43:14 35° 179° (S) 1,499 4.8 -28.5°
